Regional Weather Roundup
Issued by NWS

Home | Current Version | Previous Version | Graphics & Text | Print | Product List | Glossary On
Versions: 1 2 3 4 5 6 7 8 9 10 11 12 13 14 15 16 17 18 19 20 21 22 23 24 25 26 27 28 29 30 31 32 33 34 35 36 37 38 39 40 41 42 43 44 45 46 47 48 49 50
000
ASUS43 KBIS 151202
RWRND

NORTH DAKOTA REGIONAL WEATHER ROUNDUP
NATIONAL WEATHER SERVICE BISMARCK ND
600 AM CST FRI DEC 15 2017

NOTE: "FAIR" INDICATES FEW OR NO CLOUDS BELOW 12,000 FEET WITH NO
SIGNIFICANT WEATHER AND/OR OBSTRUCTIONS TO VISIBILITY.


NDZ001>003-009>011-017-151300-
NORTHWEST NORTH DAKOTA

CITY           SKY/WX    TMP DP  RH WIND       PRES   REMARKS
WILLISTON      CLOUDY    29  25  85 SW3       29.75F
6HR MIN TEMP:  26; 6HR MAX TEMP:  29;

MINOT          CLOUDY    30  24  78 SW7       29.78F
MINOT AFB      CLOUDY    29  23  80 SW6       29.77F
$$

NDZ018>021-031>035-040>046-151300-
SOUTHWEST NORTH DAKOTA

CITY           SKY/WX    TMP DP  RH WIND       PRES   REMARKS
BISMARCK       CLOUDY    28  23  81 SW5       29.84F
6HR MIN TEMP:  28; 6HR MAX TEMP:  34;

DICKINSON      CLOUDY    29  23  78 SW12      29.76F WCI  19
GARRISON         N/A     29  25  85 W3        29.79F
6HR MIN TEMP:  26; 6HR MAX TEMP:  30;

HETTINGER ARPT CLOUDY    26  21  81 W5        29.81F
$$

NDZ004>008-012>016-024-026-027-054-151300-
NORTHEAST NORTH DAKOTA

CITY           SKY/WX    TMP DP  RH WIND       PRES   REMARKS
GRAND FORKS    CLOUDY    18  14  84 CALM      29.90F
GRND FRKS AFB  LGT SNOW  17  13  82 S3        29.90F
DEVILS LAKE    LGT SNOW  22  20  92 SE8       29.83S FOG     WCI  12
$$

NDZ022-023-025-028>030-036>039-047>053-151300-
SOUTHEAST NORTH DAKOTA

CITY           SKY/WX    TMP DP  RH WIND       PRES   REMARKS
FARGO          CLOUDY    20  16  84 N3        29.91F
6HR MIN TEMP:  20; 6HR MAX TEMP:  21;

JAMESTOWN      CLOUDY    23  22  96 S6        29.83F WCI  16
$$




USA.gov is the U.S. government's official web portal to all federal, state and local government web resources and services.